Content
SEND FEEDBACK

Daily
Averages
Monthly
Summary
United States of America

INARAJAN, GUAM


Home > North America > United States > Guam
Elevation: 280 feet     Latitude: 13 18N     Longitude: 144 44E

WEATHER
 
SELECT A DAY
Number of Records: 351,844;   Date Range: 1/1/95 - 10/23/14
 
SHARE

PRINT THIS DATA

[ ← Previous Day ]
WEATHER ALMANAC - MARCH 18, 2013
[ Next Day → ]
[ °C ]   °F
Weather ElementAverageHighLow
Temperature76.4 °F81.1 °F (9:55 am)73.4 °F (2:45 pm)
Dewpoint73.8 °F75.7 °F (9:55 pm)68.9 °F (1:55 am)
Humidity91.6 %100 % (11:14 am)76 % (8:55 am)
Barometer29.86 in29.90 in (9:55 am)29.82 in (3:39 am)
Wind Speed15.5 mph25.3 mph (10:36 am)
Wind Gust34.5 mph (10:31 am)
Weather ElementAverage
Visibility7.7 mi
Wind DirectionENE (67.5 °)

Weather ElementTotal
Precipitation---
Cooling Degree Days12.3 (Base 65)
Growing Degree Days27.3 (Base 50)
Averaged from 166 records on March 18, 2013
WEATHER CONDITIONS BREAKOUT
WIND DIRECTION BREAKOUT
WEATHER BY HOUR - MARCH 18, 2013
[ °C ]   °F
Local TimeTemperatureDewpointHumidityBarometerVisibilityWind DirectionWind SpeedGust SpeedPrecipitationEventsConditions
12:08 AM77.0 °F71.6 °F83 %29.88 in10.0 miNE (50°)15.0 mphMostly Cloudy
12:29 AM77.0 °F71.6 °F83 %29.87 in10.0 miNE (50°)17.3 mphScattered Clouds
12:55 AM77.0 °F70.0 °F79 %29.86 in10.0 miENE (60°)19.6 mphClear
1:55 AM76.6 °F68.9 °F77 %29.84 in10.0 miENE (60°)16.1 mphClear
2:44 AM77.0 °F69.8 °F78 %29.83 in10.0 miENE (60°)17.3 mphMostly Cloudy
2:47 AM77.0 °F69.8 °F78 %29.83 in10.0 miENE (60°)18.4 mphScattered Clouds
2:55 AM76.6 °F69.3 °F78 %29.83 in10.0 miNE (50°)18.4 mphScattered Clouds
2:56 AM77.0 °F69.8 °F78 %29.83 in10.0 miNE (50°)18.4 mphMostly Cloudy
3:11 AM77.0 °F69.8 °F78 %29.83 in10.0 miNE (50°)17.3 mphScattered Clouds
3:18 AM77.0 °F69.8 °F78 %29.83 in10.0 miNE (50°)15.0 mphMostly Cloudy
3:28 AM77.0 °F69.8 °F78 %29.83 in10.0 miNE (50°)17.3 mphMostly Cloudy
3:39 AM77.0 °F69.8 °F78 %29.82 in10.0 miNE (50°)15.0 mphMostly Cloudy
3:55 AM77.2 °F70.0 °F78 %29.83 in10.0 miNE (40°)17.3 mphOvercast
4:55 AM77.2 °F70.5 °F80 %29.82 in10.0 miNE (50°)15.0 mphMostly Cloudy
5:15 AM77.0 °F71.6 °F83 %29.82 in10.0 miNE (50°)16.1 mphScattered Clouds
5:36 AM77.0 °F71.6 °F83 %29.83 in10.0 miNE (50°)16.1 mphMostly Cloudy
5:55 AM77.7 °F71.8 °F82 %29.84 in10.0 miNE (50°)18.4 mphMostly Cloudy
6:04 AM77.0 °F71.6 °F83 %29.84 in10.0 miNE (50°)18.4 mphMostly Cloudy
6:20 AM77.0 °F71.6 °F83 %29.85 in10.0 miENE (60°)16.1 mphMostly Cloudy
6:22 AM77.0 °F71.6 °F83 %29.85 in10.0 miNE (50°)17.3 mphMostly Cloudy
6:25 AM77.0 °F71.6 °F83 %29.85 in10.0 miNE (50°)17.3 mphMostly Cloudy
6:29 AM77.0 °F71.6 °F83 %29.85 in10.0 miNE (50°)17.3 mphMostly Cloudy
6:31 AM77.0 °F71.6 °F83 %29.85 in10.0 miNE (50°)16.1 mphMostly Cloudy
6:37 AM78.8 °F71.6 °F78 %29.85 in10.0 miNE (50°)17.3 mphMostly Cloudy
6:38 AM78.8 °F71.6 °F78 %29.86 in10.0 miNE (50°)17.3 mphMostly Cloudy
6:43 AM78.8 °F71.6 °F78 %29.86 in10.0 miNE (50°)17.3 mphOvercast
6:55 AM78.3 °F72.0 °F81 %29.86 in10.0 miNE (50°)16.1 mphMostly Cloudy
7:06 AM78.8 °F71.6 °F78 %29.86 in10.0 miNE (50°)15.0 mphOvercast
7:10 AM78.8 °F71.6 °F78 %29.87 in10.0 miNE (50°)16.1 mphMostly Cloudy
7:55 AM79.2 °F72.3 °F79 %29.88 in10.0 miNE (50°)17.3 mphMostly Cloudy
8:55 AM80.4 °F72.3 °F76 %29.89 in10.0 miENE (60°)17.3 mphScattered Clouds
9:55 AM81.1 °F73.2 °F77 %29.90 in10.0 miENE (60°)20.7 mphPartly Cloudy
10:18 AM80.6 °F73.4 °F79 %29.89 in10.0 miENE (60°)18.4 mph25.3 mphMostly Cloudy
10:23 AM80.6 °F73.4 °F79 %29.89 in10.0 miENE (60°)18.4 mphMostly Cloudy
10:24 AM80.6 °F73.4 °F79 %29.89 in10.0 miENE (60°)20.7 mphMostly Cloudy
10:31 AM80.6 °F75.2 °F84 %29.89 in10.0 miEast (80°)23.0 mph34.5 mphMostly Cloudy
10:36 AM78.8 °F75.2 °F89 %29.90 in6.0 miEast (80°)25.3 mph34.5 mphRainLight Rain
10:40 AM77.0 °F75.2 °F94 %29.90 in5.0 miEast (80°)21.9 mph34.5 mphRainLight Rain
10:43 AM77.0 °F75.2 °F94 %29.90 in5.0 miEast (80°)23.0 mph34.5 mphRainLight Rain
10:55 AM75.9 °F73.8 °F93 %29.90 in4.0 miEast (80°)17.3 mph29.9 mph0.00 inLight Drizzle
10:59 AM75.2 °F73.4 °F94 %29.90 in6.0 miEast (80°)15.0 mphLight Drizzle
11:02 AM75.2 °F73.4 °F94 %29.90 in9.0 miEast (80°)17.3 mphLight Drizzle
11:06 AM75.2 °F73.4 °F94 %29.90 in6.0 miENE (70°)16.1 mphLight Drizzle
11:11 AM75.2 °F73.4 °F94 %29.89 in3.0 miENE (70°)15.0 mphRainLight Rain
11:14 AM75.2 °F75.2 °F100 %29.89 in2.5 miENE (60°)16.1 mph23.0 mphRainLight Rain
11:16 AM75.2 °F75.2 °F100 %29.89 in2.5 miNE (50°)20.7 mph25.3 mphRainLight Rain
11:17 AM75.2 °F75.2 °F100 %29.89 in3.0 miENE (60°)20.7 mph25.3 mphRainLight Rain
11:28 AM75.2 °F73.4 °F94 %29.89 in5.0 miNE (50°)17.3 mphRainLight Rain
11:43 AM77.0 °F75.2 °F94 %29.88 in10.0 miENE (60°)17.3 mphMostly Cloudy
11:49 AM77.0 °F75.2 °F94 %29.88 in10.0 miNE (50°)16.1 mphOvercast
11:51 AM77.0 °F75.2 °F94 %29.88 in10.0 miNE (50°)19.6 mphOvercast
11:54 AM77.0 °F75.2 °F94 %29.88 in10.0 miENE (60°)16.1 mphMostly Cloudy
11:55 AM76.6 °F74.7 °F94 %29.88 in10.0 miNE (50°)15.0 mphMostly Cloudy
11:57 AM77.0 °F75.2 °F94 %29.88 in9.0 miNE (50°)16.1 mphMostly Cloudy
12:12 PM77.0 °F75.2 °F94 %29.87 in10.0 miNE (50°)13.8 mphLight Drizzle
12:14 PM77.0 °F75.2 °F94 %29.87 in10.0 miNE (50°)15.0 mphOvercast
12:20 PM77.0 °F75.2 °F94 %29.86 in10.0 miNE (50°)16.1 mphRainLight Rain
12:23 PM77.0 °F75.2 °F94 %29.86 in10.0 miNE (40°)17.3 mphRainLight Rain
12:32 PM77.0 °F75.2 °F94 %29.86 in10.0 miNE (50°)17.3 mphRainLight Rain
12:37 PM77.0 °F75.2 °F94 %29.86 in10.0 miNE (50°)17.3 mphOvercast
12:39 PM77.0 °F75.2 °F94 %29.85 in10.0 miNE (40°)18.4 mphOvercast
12:45 PM78.8 °F75.2 °F89 %29.85 in10.0 miNE (50°)17.3 mphOvercast
12:55 PM77.9 °F75.6 °F92 %29.84 in10.0 miNE (50°)20.7 mphOvercast
1:03 PM77.0 °F75.2 °F94 %29.84 in10.0 miNE (50°)17.3 mphOvercast
1:21 PM77.0 °F73.4 °F89 %29.83 in10.0 miNE (50°)19.6 mphOvercast
1:36 PM78.8 °F75.2 °F89 %29.83 in10.0 miNE (40°)19.6 mph25.3 mphOvercast
1:38 PM77.0 °F75.2 °F94 %29.83 in9.0 miNE (50°)20.7 mph25.3 mphOvercast
1:39 PM77.0 °F75.2 °F94 %29.83 in9.0 miNE (50°)20.7 mph25.3 mphOvercast
1:41 PM77.0 °F75.2 °F94 %29.83 in8.0 miNE (50°)19.6 mph25.3 mphOvercast
1:47 PM77.0 °F75.2 °F94 %29.83 in9.0 miENE (60°)19.6 mphOvercast
1:48 PM77.0 °F75.2 °F94 %29.83 in9.0 miENE (60°)18.4 mphOvercast
1:52 PM77.0 °F75.2 °F94 %29.83 in10.0 miENE (60°)17.3 mphOvercast
1:54 PM77.0 °F75.2 °F94 %29.83 in10.0 miENE (60°)16.1 mphOvercast
1:55 PM77.2 °F75.4 °F94 %29.83 in10.0 miENE (60°)15.0 mphOvercast
1:57 PM77.0 °F75.2 °F94 %29.83 in10.0 miENE (60°)17.3 mphOvercast
1:59 PM77.0 °F75.2 °F94 %29.83 in10.0 miENE (60°)16.1 mphOvercast
2:01 PM77.0 °F75.2 °F94 %29.83 in10.0 miENE (60°)17.3 mphOvercast
2:08 PM77.0 °F75.2 °F94 %29.83 in10.0 miENE (60°)13.8 mphOvercast
2:22 PM77.0 °F75.2 °F94 %29.83 in7.0 miEast (80°)21.9 mph26.5 mphOvercast
2:24 PM77.0 °F73.4 °F89 %29.83 in4.0 miEast (90°)19.6 mph26.5 mphRainLight Rain
2:27 PM75.2 °F73.4 °F94 %29.83 in2.5 miEast (90°)20.7 mph26.5 mphRainLight Rain
2:29 PM75.2 °F73.4 °F94 %29.83 in2.0 miEast (90°)17.3 mph26.5 mphRainLight Rain
2:32 PM75.2 °F73.4 °F94 %29.83 in2.5 miEast (80°)21.9 mph28.8 mphRainLight Rain
2:34 PM75.2 °F73.4 °F94 %29.83 in3.0 miEast (80°)20.7 mph28.8 mphRainLight Rain
2:45 PM73.4 °F73.4 °F100 %29.83 in3.0 miEast (80°)18.4 mphRainLight Rain
2:55 PM73.9 °F72.7 °F96 %29.83 in4.0 miENE (70°)19.6 mph0.00 inRainLight Rain
3:08 PM73.4 °F73.4 °F100 %29.83 in2.5 miENE (70°)17.3 mphRainLight Rain
3:09 PM73.4 °F73.4 °F100 %29.83 in2.0 miENE (70°)16.1 mphRainRain
3:10 PM73.4 °F73.4 °F100 %29.83 in1.8 miENE (70°)18.4 mphRainHeavy Rain
3:12 PM73.4 °F73.4 °F100 %29.83 in1.5 miENE (70°)17.3 mphRainHeavy Rain
3:18 PM73.4 °F71.6 °F94 %29.83 in2.0 miENE (70°)11.5 mphRainLight Rain
3:19 PM73.4 °F71.6 °F94 %29.83 in2.5 miENE (70°)13.8 mphRainLight Rain
3:21 PM73.4 °F71.6 °F94 %29.83 in3.0 miENE (70°)15.0 mphRainLight Rain
3:31 PM73.4 °F73.4 °F100 %29.83 in7.0 miENE (70°)12.7 mphRainLight Rain
3:40 PM73.4 °F73.4 °F100 %29.82 in8.0 miENE (70°)9.2 mphRainLight Rain
3:55 PM74.7 °F73.8 °F97 %29.83 in10.0 miEast (80°)12.7 mphRainLight Rain
3:56 PM75.2 °F73.4 °F94 %29.83 in10.0 miEast (80°)12.7 mphRainLight Rain
4:02 PM75.2 °F73.4 °F94 %29.83 in7.0 miEast (80°)11.5 mphRainLight Rain
4:03 PM75.2 °F73.4 °F94 %29.83 in7.0 miEast (80°)10.4 mphRainLight Rain
4:04 PM75.2 °F73.4 °F94 %29.83 in7.0 miEast (80°)9.2 mphRainRain
4:05 PM75.2 °F73.4 °F94 %29.83 in6.0 miEast (80°)9.2 mphRainRain
4:06 PM75.2 °F73.4 °F94 %29.83 in6.0 miEast (80°)9.2 mphRainRain
4:11 PM75.2 °F73.4 °F94 %29.83 in6.0 miEast (80°)9.2 mphRainRain
4:17 PM75.2 °F73.4 °F94 %29.83 in8.0 miEast (90°)9.2 mphRainLight Rain
4:18 PM75.2 °F73.4 °F94 %29.83 in8.0 miEast (80°)9.2 mphRainLight Rain
4:30 PM75.2 °F73.4 °F94 %29.83 in10.0 miEast (90°)10.4 mphRainLight Rain
4:55 PM75.4 °F74.1 °F96 %29.84 in7.0 miEast (80°)13.8 mphRainRain
5:08 PM75.2 °F75.2 °F100 %29.85 in6.0 miENE (60°)13.8 mphRainRain
5:18 PM75.2 °F75.2 °F100 %29.85 in6.0 miENE (70°)12.7 mphRainLight Rain
5:21 PM75.2 °F75.2 °F100 %29.86 in6.0 miENE (70°)12.7 mphRainLight Rain
5:32 PM75.2 °F73.4 °F94 %29.86 in5.0 miEast (90°)16.1 mph25.3 mphRainRain
5:36 PM75.2 °F73.4 °F94 %29.86 in2.5 miEast (90°)15.0 mphRainRain
5:37 PM75.2 °F73.4 °F94 %29.86 in2.0 miEast (90°)17.3 mphRainRain
5:38 PM75.2 °F73.4 °F94 %29.86 in1.8 miEast (100°)15.0 mphRainHeavy Rain
5:41 PM75.2 °F75.2 °F100 %29.86 in1.2 miESE (120°)13.8 mphRainHeavy Rain
5:43 PM75.2 °F75.2 °F100 %29.86 in1.0 miESE (120°)9.2 mphRainHeavy Rain
5:47 PM75.2 °F75.2 °F100 %29.86 in1.2 miVariable6.9 mphRainHeavy Rain
5:50 PM75.2 °F73.4 °F94 %29.87 in1.5 miCalmRainHeavy Rain
5:55 PM73.9 °F72.7 °F96 %29.87 in2.0 miVariable3.5 mphRainHeavy Rain
5:58 PM73.4 °F73.4 °F100 %29.87 in2.5 miEast (100°)6.9 mphRainRain
6:01 PM75.2 °F73.4 °F94 %29.87 in3.0 miEast (90°)9.2 mphRainRain
6:15 PM75.2 °F75.2 °F100 %29.87 in7.0 miEast (80°)11.5 mphRainLight Rain
6:29 PM75.2 °F75.2 °F100 %29.87 in7.0 miEast (80°)12.7 mphRainLight Rain
6:45 PM75.2 °F75.2 °F100 %29.90 in9.0 miSE (130°)10.4 mphRainLight Rain
6:47 PM75.2 °F73.4 °F94 %29.87 in9.0 miSE (130°)10.4 mphRainLight Rain
6:55 PM75.0 °F74.1 °F97 %29.86 in7.0 miEast (100°)8.1 mphRainLight Rain
7:06 PM75.2 °F73.4 °F94 %29.86 in7.0 miESE (110°)8.1 mphRainLight Rain
7:07 PM75.2 °F73.4 °F94 %29.86 in8.0 miESE (110°)8.1 mphRainLight Rain
7:08 PM75.2 °F73.4 °F94 %29.86 in9.0 miESE (110°)8.1 mphRainLight Rain
7:15 PM75.2 °F73.4 °F94 %29.86 in8.0 miEast (100°)8.1 mphRainLight Rain
7:17 PM75.2 °F73.4 °F94 %29.86 in8.0 miEast (100°)8.1 mphRainLight Rain
7:19 PM75.2 °F73.4 °F94 %29.86 in8.0 miEast (100°)6.9 mphRainLight Rain
7:21 PM75.2 °F73.4 °F94 %29.86 in8.0 miEast (90°)6.9 mphRainLight Rain
7:24 PM75.2 °F75.2 °F100 %29.86 in8.0 miEast (80°)8.1 mphRainLight Rain
7:55 PM76.1 °F75.4 °F98 %29.86 in10.0 miENE (60°)9.2 mphRainLight Rain
8:17 PM77.0 °F75.2 °F94 %29.87 in10.0 miEast (80°)18.4 mphRainLight Rain
8:55 PM76.6 °F75.4 °F96 %29.87 in10.0 miENE (70°)17.3 mph0.00 inRainLight Rain
9:00 PM77.0 °F75.2 °F94 %29.87 in10.0 miENE (60°)18.4 mphOvercast
9:05 PM77.0 °F75.2 °F94 %29.87 in10.0 miENE (70°)16.1 mphOvercast
9:16 PM77.0 °F75.2 °F94 %29.87 in10.0 miENE (70°)13.8 mphOvercast
9:29 PM77.0 °F75.2 °F94 %29.88 in9.0 miEast (80°)21.9 mph25.3 mphRainLight Rain
9:40 PM77.0 °F75.2 °F94 %29.88 in9.0 miENE (70°)15.0 mph24.2 mphLight Drizzle
9:47 PM77.0 °F75.2 °F94 %29.88 in10.0 miENE (70°)17.3 mphOvercast
9:55 PM77.0 °F75.7 °F96 %29.88 in10.0 miENE (60°)15.0 mphOvercast
9:56 PM77.0 °F75.2 °F94 %29.88 in10.0 miENE (60°)15.0 mphOvercast
9:57 PM77.0 °F75.2 °F94 %29.88 in10.0 miENE (60°)15.0 mphOvercast
10:01 PM77.0 °F75.2 °F94 %29.88 in10.0 miENE (60°)13.8 mphOvercast
10:08 PM77.0 °F75.2 °F94 %29.88 in6.0 miENE (70°)15.0 mphRainHeavy Rain
10:10 PM77.0 °F75.2 °F94 %29.88 in5.0 miENE (70°)17.3 mphRainLight Rain
10:12 PM77.0 °F75.2 °F94 %29.88 in4.0 miEast (80°)16.1 mphRainLight Rain
10:19 PM77.0 °F75.2 °F94 %29.88 in5.0 miEast (80°)16.1 mph24.2 mphRainLight Rain
10:20 PM77.0 °F75.2 °F94 %29.88 in5.0 miENE (70°)16.1 mph24.2 mphRainLight Rain
10:24 PM77.0 °F75.2 °F94 %29.88 in10.0 miEast (80°)13.8 mphOvercast
10:31 PM77.0 °F75.2 °F94 %29.87 in9.0 miEast (80°)17.3 mphOvercast
10:32 PM77.0 °F75.2 °F94 %29.87 in9.0 miEast (80°)18.4 mphOvercast
10:38 PM77.0 °F75.2 °F94 %29.88 in10.0 miEast (80°)15.0 mphOvercast
10:39 PM77.0 °F75.2 °F94 %29.88 in10.0 miEast (80°)17.3 mphOvercast
10:55 PM77.4 °F75.2 °F93 %29.88 in10.0 miENE (70°)16.1 mphMostly Cloudy
10:57 PM77.0 °F75.2 °F94 %29.87 in10.0 miENE (70°)16.1 mphMostly Cloudy
10:58 PM77.0 °F75.2 °F94 %29.87 in10.0 miENE (70°)17.3 mphMostly Cloudy
11:10 PM77.0 °F75.2 °F94 %29.87 in8.0 miENE (60°)16.1 mphLight Drizzle
11:15 PM77.0 °F75.2 °F94 %29.87 in5.0 miENE (70°)19.6 mphRainLight Rain
11:16 PM77.0 °F75.2 °F94 %29.87 in5.0 miENE (70°)20.7 mphRainRain
11:48 PM77.0 °F75.2 °F94 %29.87 in9.0 miEast (90°)15.0 mphLight Drizzle
11:55 PM76.8 °F74.1 °F91 %29.87 in9.0 miENE (70°)16.1 mphLight Drizzle
11:57 PM77.0 °F73.4 °F89 %29.87 in10.0 miENE (70°)16.1 mphMostly Cloudy
Hourly data recorded from PGUA, located miles away from Inarajan, Guam







STORIES FROM OUR PARTNERS